Airfield :
LOGIN :

Register | Disclaimer

   EN    FR    IT 

 










Legend :    VFR   Marginal VFR   IFR   Intensive IFR   Very Intensive IFR
Visi :
Ceiling :
>= 8 km
>= 3000ft
5 to 8 km
1000 to 3000 ft
1500m to 5 km
500 to 1000 ft
800 to 1500m
200 to 500 ft
< 800m
< 200 ft
Symbols :   Thunderstorms  Fog  Heavy snow  Heavy precipitations  Wind > 20 kt
SIGMETs :     Misc.  Thunderstorms  Icing  Turbulence  Mountain Waves  Volcanic Ashes






- Airport Elevation : 863 ft
- IATA code : ZAZ


LEZG - Zaragoza Aragon

CURRENT METAR :
  • 191100Z 32015KT 9999 FEW040 21/10 Q1022

EXPIRED METARs :
  • 191030Z 30014KT 9999 FEW040 20/10 Q1022
  • 191000Z 30015KT 280V340 9999 FEW040 19/10 Q1022
  • 190930Z 30013KT 270V340 9999 FEW040 19/10 Q1022
  • 190900Z 30011KT 270V340 CAVOK 18/10 Q1022
  • 190830Z 30011KT 270V340 CAVOK 17/09 Q1022

TAF TAF LEZG
Valid from the 19 at 06:00 until the 20 at 06:00 UTC


190500Z 1906/2006 31016KT 9999 FEW040 TX25/1914Z TN13/1906Z
TEMPO 1906/1908 28006KT



MET'MAP, your aeronautical weather chart ! - Copyright ORBIFLY December 2007 - Disclaimer

ORBIFLY MET'MAP TEAM :

Programming & Development : Alexandra Zaïnal
Concept & original design : Baudouin d'Aumeries
Assistance for programming : Marc-Olivier Méhu
Technical & hardware support : Manuel Goepfert

Contact : metmap@orbifly.com




SOURCES & CREDITS :

   NOAA